Content
SEND FEEDBACK

Daily
Averages
Monthly
Summary
United States of America

SUCCESS, MISSOURI


Home > North America > United States > Missouri
Elevation: 1388 feet     Latitude: 37 30N     Longitude: 092 08W

WEATHER
 
SELECT A DAY
Number of Records: 166,204;   Date Range: 1/1/95 - 8/12/14
 
SHARE

PRINT THIS DATA

[ ← Previous Day ]
WEATHER ALMANAC - JANUARY 31, 2013
[ Next Day → ]
[ °C ]   °F
Weather ElementAverageHighLow
Temperature25 °F37.4 °F (12:19 pm)10.6 °F (11:55 pm)
Dewpoint18.2 °F28.4 °F (1:22 pm)3.2 °F (9:45 pm)
Humidity76.2 %100 % (1:59 pm)55 % (5:55 pm)
Barometer30.18 in30.44 in (11:23 pm)29.99 in (1:55 am)
Wind Speed11.7 mph21.9 mph (3:13 pm)
Wind Gust31.1 mph (3:13 pm)
Weather ElementAverage
Visibility6.7 mi
Wind DirectionWNW (286.2 °)

Weather ElementTotal
Precipitation0.01 in
Heating Degree Days41 (Base 65)
Averaged from 69 records on January 31, 2013
WEATHER CONDITIONS BREAKOUT
WIND DIRECTION BREAKOUT
WEATHER BY HOUR - JANUARY 31, 2013
[ °C ]   °F
Local TimeTemperatureDewpointHumidityBarometerVisibilityWind DirectionWind SpeedGust SpeedPrecipitationEventsConditions
1:55 AM26.2 °F19.0 °F74 %29.99 in10.0 miWest (260°)11.5 mph17.3 mphOvercast
2:44 AM24.8 °F17.6 °F74 %30.00 in10.0 miWest (280°)10.4 mphScattered Clouds
2:55 AM25.0 °F16.9 °F71 %30.00 in10.0 miWest (280°)6.9 mphPartly Cloudy
3:55 AM23.0 °F16.9 °F77 %29.99 in10.0 miWest (260°)3.5 mphClear
4:55 AM23.0 °F18.1 °F82 %30.00 in10.0 miWest (260°)4.6 mphOvercast
5:55 AM24.1 °F19.6 °F83 %29.99 in10.0 miSW (220°)4.6 mphOvercast
6:55 AM24.1 °F20.1 °F85 %30.01 in10.0 miWSW (240°)4.6 mphOvercast
7:55 AM23.9 °F20.3 °F86 %30.02 in10.0 miSW (220°)4.6 mphScattered Clouds
8:55 AM27.3 °F20.3 °F75 %30.07 in10.0 miWest (270°)6.9 mphPartly Cloudy
9:55 AM30.9 °F19.6 °F63 %30.08 in10.0 miVariable6.9 mphScattered Clouds
10:55 AM34.3 °F20.1 °F56 %30.07 in10.0 miWest (270°)9.2 mphScattered Clouds
11:55 AM36.1 °F21.9 °F56 %30.07 in10.0 miWSW (250°)6.9 mphOvercast
12:03 PM35.6 °F21.2 °F56 %30.07 in10.0 miNW (310°)12.7 mphOvercast
12:08 PM35.6 °F23.0 °F60 %30.02 in10.0 miWSW (250°)9.2 mphSnowLight Snow
12:19 PM37.4 °F23.0 °F56 %30.06 in10.0 miWNW (290°)10.4 mphMostly Cloudy
12:55 PM35.1 °F22.3 °F60 %30.07 in4.0 miWest (270°)15.0 mph0.00 inSnowLight Snow
1:03 PM33.8 °F24.8 °F70 %30.08 in3.0 miNW (310°)13.8 mph23.0 mphSnowLight Snow
1:05 PM33.8 °F24.8 °F70 %30.09 in2.5 miWNW (290°)16.1 mph23.0 mphSnowLight Snow
1:09 PM32.0 °F26.6 °F80 %30.09 in1.8 miWNW (290°)16.1 mph20.7 mphSnowLight Snow
1:12 PM32.0 °F26.6 °F80 %30.10 in1.5 miWest (280°)11.5 mph20.7 mphSnowLight Snow
1:13 PM32.0 °F26.6 °F80 %30.10 in1.8 miWest (280°)12.7 mph20.7 mphSnowLight Snow
1:16 PM32.0 °F26.6 °F80 %30.10 in2.0 miWest (280°)10.4 mphSnowLight Snow
1:22 PM32.0 °F28.4 °F87 %30.11 in3.0 miWNW (290°)13.8 mphSnowLight Snow
1:23 PM32.0 °F28.4 °F87 %30.11 in2.5 miWNW (290°)11.5 mphSnowLight Snow
1:26 PM30.2 °F28.4 °F93 %30.11 in1.8 miWNW (300°)10.4 mphSnowLight Snow
1:27 PM30.2 °F28.4 °F93 %30.11 in1.5 miWNW (300°)13.8 mph18.4 mphSnowLight Snow
1:28 PM30.2 °F28.4 °F93 %30.11 in1.2 miWNW (290°)16.1 mphSnowLight Snow
1:30 PM30.2 °F28.4 °F93 %30.11 in1.0 miWNW (290°)11.5 mphSnowLight Snow
1:32 PM30.2 °F28.4 °F93 %30.11 in1.0 miWNW (300°)12.7 mph20.7 mphSnowLight Snow
1:39 PM30.2 °F28.4 °F93 %30.11 in1.2 miWest (280°)13.8 mph20.7 mphSnowLight Snow
1:40 PM30.2 °F28.4 °F93 %30.11 in1.2 miWNW (290°)13.8 mph20.7 mphSnowLight Snow
1:41 PM30.2 °F28.4 °F93 %30.11 in1.5 miWNW (290°)12.7 mphSnowLight Snow
1:46 PM30.2 °F28.4 °F93 %30.12 in1.2 miWest (280°)13.8 mphSnowLight Snow
1:50 PM30.2 °F28.4 °F93 %30.12 in1.0 miWNW (290°)17.3 mphSnowLight Snow
1:55 PM29.3 °F27.7 °F94 %30.12 in1.0 miWest (280°)13.8 mph20.7 mph0.00 inSnowLight Snow
1:59 PM28.4 °F28.4 °F100 %30.12 in0.8 miWest (280°)13.8 mph21.9 mphSnowLight Snow
2:30 PM28.4 °F26.6 °F93 %30.14 in1.2 miWNW (300°)16.1 mph25.3 mphSnowLight Snow
2:32 PM28.4 °F24.8 °F86 %30.15 in1.5 miWNW (290°)16.1 mph25.3 mphSnowLight Snow
2:35 PM28.4 °F24.8 °F86 %30.15 in1.8 miWNW (300°)20.7 mph28.8 mphSnowLight Snow
2:51 PM26.6 °F24.8 °F93 %30.15 in2.0 miWNW (290°)16.1 mph21.9 mphSnowLight Snow
2:55 PM27.3 °F23.4 °F85 %30.16 in3.0 miWNW (300°)18.4 mph21.9 mph0.00 inSnowLight Snow
3:09 PM26.6 °F23.0 °F86 %30.17 in3.0 miWNW (290°)20.7 mph29.9 mphSnowLight Snow
3:13 PM26.6 °F19.4 °F74 %30.16 in5.0 miWNW (300°)21.9 mph31.1 mphSnowLight Snow
3:18 PM26.6 °F19.4 °F74 %30.16 in10.0 miWNW (290°)12.7 mph31.1 mphSnowLight Snow
3:23 PM26.6 °F19.4 °F74 %30.17 in10.0 miWNW (290°)15.0 mph24.2 mphOvercast
3:52 PM26.6 °F19.4 °F74 %30.18 in10.0 miWest (280°)17.3 mph24.2 mphOvercast
3:55 PM26.8 °F19.2 °F73 %30.18 in10.0 miWest (280°)15.0 mph24.2 mph0.01 inOvercast
4:04 PM26.6 °F15.8 °F64 %30.18 in10.0 miWNW (300°)16.1 mph25.3 mphOvercast
4:12 PM26.6 °F15.8 °F64 %30.19 in10.0 miNW (310°)16.1 mph21.9 mphOvercast
4:55 PM23.4 °F10.4 °F58 %30.22 in10.0 miWNW (300°)11.5 mph19.6 mphPartly Cloudy
5:55 PM21.4 °F7.3 °F55 %30.25 in10.0 miWNW (300°)11.5 mph20.7 mphScattered Clouds
6:55 PM19.8 °F7.0 °F58 %30.29 in10.0 miWNW (290°)8.1 mphClear
7:55 PM17.8 °F7.9 °F65 %30.32 in10.0 miNW (320°)10.4 mph18.4 mphClear
8:55 PM15.6 °F7.7 °F71 %30.37 in10.0 miNW (320°)11.5 mphPartly Cloudy
9:29 PM14.0 °F5.0 °F67 %30.40 in10.0 miNW (320°)15.0 mphMostly Cloudy
9:45 PM14.0 °F3.2 °F62 %30.40 in10.0 miNW (310°)10.4 mphScattered Clouds
9:55 PM13.1 °F3.9 °F67 %30.42 in10.0 miNW (310°)9.2 mphScattered Clouds
10:15 PM12.2 °F5.0 °F73 %30.42 in10.0 miNW (310°)8.1 mphMostly Cloudy
10:26 PM12.2 °F5.0 °F73 %30.42 in10.0 miWNW (300°)8.1 mphMostly Cloudy
10:32 PM12.2 °F5.0 °F73 %30.42 in10.0 miNW (310°)6.9 mphOvercast
10:33 PM12.2 °F5.0 °F73 %30.42 in10.0 miNW (320°)8.1 mphOvercast
10:37 PM12.2 °F5.0 °F73 %30.42 in10.0 miNW (310°)8.1 mphOvercast
10:40 PM12.2 °F5.0 °F73 %30.43 in10.0 miNW (320°)10.4 mphOvercast
10:44 PM12.2 °F5.0 °F73 %30.43 in10.0 miNW (320°)8.1 mphOvercast
10:55 PM12.2 °F4.1 °F70 %30.43 in10.0 miNW (310°)9.2 mphOvercast
11:00 PM12.2 °F3.2 °F67 %30.43 in10.0 miNW (320°)9.2 mphOvercast
11:23 PM12.2 °F3.2 °F67 %30.44 in10.0 miWNW (300°)8.1 mphMostly Cloudy
11:32 PM12.2 °F3.2 °F67 %30.44 in10.0 miNW (310°)6.9 mphScattered Clouds
11:55 PM10.6 °F3.6 °F73 %30.43 in10.0 miNW (320°)5.8 mphPartly Cloudy
Hourly data recorded from KTBN, located miles away from Success, Missouri







STORIES FROM OUR PARTNERS